When you browse on this site, cookies collect data to enhance your experience and personalize the content and advertising you see.
Visit our Privacy Policy to learn more. By continuing to use the site, you agree to this use of cookies and data.
  • In Latvia
  • List of Countries
  • For 7 days
  • Water Temperature
  • Weather Map
  • Weather Widgets
  • user-avatar
    Login

    Hourly Weather Kadamovskiy

    Today, 26 August, Monday

    Time Temperature Precipitation Wind Pressure Humidity
    00:00 +26°C° 0 mm 6 mps 760 mmHg 37%
    01:00 +26°C° 0 mm 5 mps 761 mmHg 37%
    02:00 +25°C° 0 mm 5 mps 761 mmHg 38%
    03:00 +25°C° 0 mm 3 mps 762 mmHg 38%
    04:00 +25°C° 0 mm 3 mps 762 mmHg 40%
    05:00 +23°C° 0 mm 4 mps 762 mmHg 43%
    06:00 +23°C° 0 mm 4 mps 762 mmHg 45%
    07:00 +25°C° 0 mm 4 mps 762 mmHg 44%
    08:00 +26°C° 0 mm 5 mps 762 mmHg 43%
    09:00 +27°C° 0 mm 5 mps 763 mmHg 42%
    10:00 +29°C° 0 mm 5 mps 763 mmHg 38%
    11:00 +30°C° 0 mm 5 mps 762 mmHg 34%
    12:00 +33°C° 0 mm 5 mps 762 mmHg 30%
    13:00 +33°C° 0 mm 5 mps 762 mmHg 28%
    14:00 +34°C° 0 mm 5 mps 762 mmHg 27%
    15:00 +34°C° 0 mm 5 mps 762 mmHg 26%
    16:00 +33°C° 0 mm 5 mps 762 mmHg 28%
    17:00 +32°C° 0 mm 5 mps 761 mmHg 30%
    18:00 +32°C° 0 mm 5 mps 761 mmHg 32%
    19:00 +29°C° 0 mm 5 mps 761 mmHg 34%
    20:00 +27°C° 0 mm 5 mps 761 mmHg 36%
    21:00 +25°C° 0 mm 4 mps 762 mmHg 39%
    22:00 +25°C° 0 mm 4 mps 761 mmHg 39%
    23:00 +23°C° 0 mm 4 mps 761 mmHg 40%

    Tomorrow, 27 August, Tuesday

    Time Temperature Precipitation Wind Pressure Humidity
    00:00 +22°C° 0 mm 4 mps 761 mmHg 41%
    01:00 +21°C° 0 mm 4 mps 761 mmHg 41%
    02:00 +21°C° 0 mm 4 mps 761 mmHg 42%
    03:00 +20°C° 0 mm 4 mps 761 mmHg 42%
    04:00 +20°C° 0 mm 4 mps 761 mmHg 43%
    05:00 +20°C° 0 mm 3 mps 761 mmHg 44%
    06:00 +19°C° 0 mm 3 mps 760 mmHg 46%
    07:00 +21°C° 0 mm 4 mps 760 mmHg 42%
    08:00 +25°C° 0 mm 4 mps 760 mmHg 37%
    09:00 +27°C° 0 mm 4 mps 760 mmHg 33%
    10:00 +28°C° 0 mm 4 mps 760 mmHg 31%
    11:00 +30°C° 0 mm 4 mps 760 mmHg 28%
    12:00 +32°C° 0 mm 4 mps 759 mmHg 26%
    13:00 +32°C° 0 mm 4 mps 759 mmHg 25%
    14:00 +33°C° 0 mm 4 mps 759 mmHg 24%
    15:00 +33°C° 0 mm 4 mps 758 mmHg 23%
    16:00 +32°C° 0 mm 5 mps 758 mmHg 24%
    17:00 +30°C° 0 mm 5 mps 758 mmHg 25%
    18:00 +29°C° 0 mm 6 mps 758 mmHg 25%
    19:00 +27°C° 0 mm 5 mps 758 mmHg 30%
    20:00 +25°C° 0 mm 5 mps 758 mmHg 35%
    21:00 +22°C° 0 mm 4 mps 759 mmHg 39%
    22:00 +21°C° 0 mm 4 mps 759 mmHg 42%
    23:00 +21°C° 0 mm 3 mps 759 mmHg 44%

    Day after tomorrow, 28 August, Wednesday

    Time Temperature Precipitation Wind Pressure Humidity
    00:00 +20°C° 0 mm 3 mps 759 mmHg 46%
    01:00 +20°C° 0 mm 3 mps 759 mmHg 50%
    02:00 +19°C° 0 mm 3 mps 759 mmHg 54%
    03:00 +19°C° 0 mm 3 mps 759 mmHg 58%
    04:00 +19°C° 0 mm 3 mps 759 mmHg 62%
    05:00 +18°C° 0 mm 2 mps 759 mmHg 66%
    06:00 +18°C° 0 mm 2 mps 759 mmHg 71%
    07:00 +20°C° 0 mm 3 mps 759 mmHg 64%
    08:00 +22°C° 0 mm 3 mps 760 mmHg 58%
    09:00 +25°C° 0 mm 4 mps 760 mmHg 52%
    10:00 +26°C° 0 mm 4 mps 760 mmHg 47%
    11:00 +27°C° 0 mm 4 mps 759 mmHg 41%
    12:00 +28°C° 0 mm 5 mps 759 mmHg 36%
    13:00 +29°C° 0 mm 5 mps 759 mmHg 33%
    14:00 +29°C° 0 mm 5 mps 759 mmHg 31%
    15:00 +29°C° 0 mm 5 mps 759 mmHg 29%
    16:00 +28°C° 0 mm 5 mps 759 mmHg 30%
    17:00 +27°C° 0 mm 6 mps 759 mmHg 31%
    18:00 +26°C° 0 mm 6 mps 759 mmHg 32%
    19:00 +24°C° 0 mm 6 mps 759 mmHg 36%
    20:00 +22°C° 0 mm 5 mps 760 mmHg 41%
    21:00 +20°C° 0 mm 5 mps 760 mmHg 45%
    22:00 +19°C° 0 mm 5 mps 761 mmHg 44%
    23:00 +17°C° 0 mm 5 mps 761 mmHg 43%

    29 August, Thursday

    Time Temperature Precipitation Wind Pressure Humidity
    00:00 +16°C° 0 mm 5 mps 761 mmHg 41%
    01:00 +15°C° 0 mm 5 mps 761 mmHg 44%
    02:00 +14°C° 0 mm 4 mps 762 mmHg 47%
    03:00 +13°C° 0 mm 4 mps 762 mmHg 50%
    04:00 +12°C° 0 mm 4 mps 762 mmHg 53%
    05:00 +12°C° 0 mm 4 mps 762 mmHg 55%
    06:00 +11°C° 0 mm 4 mps 763 mmHg 58%
    07:00 +12°C° 0 mm 5 mps 763 mmHg 53%
    08:00 +14°C° 0 mm 5 mps 763 mmHg 49%
    09:00 +15°C° 0 mm 6 mps 763 mmHg 44%
    10:00 +17°C° 0 mm 6 mps 763 mmHg 39%
    11:00 +20°C° 0 mm 6 mps 763 mmHg 34%
    12:00 +21°C° 0 mm 6 mps 763 mmHg 29%
    13:00 +22°C° 0 mm 6 mps 762 mmHg 27%
    14:00 +23°C° 0 mm 6 mps 762 mmHg 25%
    15:00 +23°C° 0 mm 6 mps 761 mmHg 23%
    16:00 +23°C° 0 mm 6 mps 761 mmHg 24%
    17:00 +22°C° 0 mm 6 mps 761 mmHg 25%
    18:00 +22°C° 0 mm 6 mps 761 mmHg 26%
    19:00 +20°C° 0 mm 5 mps 761 mmHg 30%
    20:00 +18°C° 0 mm 4 mps 761 mmHg 33%
    21:00 +17°C° 0 mm 4 mps 761 mmHg 36%
    22:00 +15°C° 0 mm 4 mps 761 mmHg 38%
    23:00 +14°C° 0 mm 4 mps 761 mmHg 40%

    30 August, Friday

    Time Temperature Precipitation Wind Pressure Humidity
    00:00 +14°C° 0 mm 4 mps 761 mmHg 42%
    01:00 +13°C° 0 mm 4 mps 761 mmHg 44%
    02:00 +13°C° 0 mm 4 mps 761 mmHg 47%
    03:00 +12°C° 0 mm 4 mps 761 mmHg 50%
    04:00 +12°C° 0 mm 4 mps 761 mmHg 52%
    05:00 +11°C° 0 mm 4 mps 761 mmHg 53%
    06:00 +11°C° 0 mm 4 mps 761 mmHg 55%
    07:00 +13°C° 0 mm 4 mps 761 mmHg 49%
    08:00 +15°C° 0 mm 4 mps 761 mmHg 43%
    09:00 +19°C° 0 mm 5 mps 761 mmHg 37%
    10:00 +20°C° 0 mm 5 mps 761 mmHg 32%
    11:00 +22°C° 0 mm 5 mps 760 mmHg 27%
    12:00 +23°C° 0 mm 5 mps 760 mmHg 22%
    13:00 +25°C° 0 mm 5 mps 760 mmHg 21%
    14:00 +25°C° 0 mm 5 mps 760 mmHg 19%
    15:00 +26°C° 0 mm 5 mps 759 mmHg 18%
    16:00 +25°C° 0 mm 5 mps 759 mmHg 20%
    17:00 +25°C° 0 mm 5 mps 759 mmHg 22%
    18:00 +23°C° 0 mm 4 mps 759 mmHg 24%
    19:00 +22°C° 0 mm 4 mps 759 mmHg 30%
    20:00 +20°C° 0 mm 3 mps 759 mmHg 35%
    21:00 +18°C° 0 mm 2 mps 759 mmHg 41%
    22:00 +18°C° 0 mm 2 mps 759 mmHg 45%
    23:00 +17°C° 0 mm 2 mps 759 mmHg 49%

    31 August, Saturday

    Time Temperature Precipitation Wind Pressure Humidity
    00:00 +17°C° 0 mm 2 mps 759 mmHg 53%
    01:00 +17°C° 0 mm 3 mps 760 mmHg 60%
    02:00 +15°C° 0 mm 4 mps 760 mmHg 68%
    03:00 +15°C° 0 mm 4 mps 760 mmHg 75%
    04:00 +14°C° 0 mm 4 mps 760 mmHg 78%
    05:00 +13°C° 0 mm 5 mps 760 mmHg 80%
    06:00 +12°C° 0 mm 5 mps 761 mmHg 83%
    07:00 +13°C° 0 mm 5 mps 761 mmHg 73%
    08:00 +14°C° 0 mm 5 mps 761 mmHg 64%
    09:00 +16°C° 0 mm 5 mps 762 mmHg 55%
    10:00 +19°C° 0 mm 5 mps 761 mmHg 45%
    11:00 +20°C° 0 mm 5 mps 761 mmHg 34%
    12:00 +22°C° 0 mm 5 mps 761 mmHg 23%
    13:00 +23°C° 0 mm 5 mps 761 mmHg 21%
    14:00 +25°C° 0 mm 5 mps 761 mmHg 19%
    15:00 +25°C° 0 mm 4 mps 761 mmHg 17%
    16:00 +25°C° 0 mm 4 mps 761 mmHg 18%
    17:00 +23°C° 0 mm 4 mps 761 mmHg 19%
    18:00 +23°C° 0 mm 4 mps 760 mmHg 20%
    19:00 +20°C° 0 mm 4 mps 761 mmHg 24%
    20:00 +18°C° 0 mm 3 mps 761 mmHg 28%
    21:00 +16°C° 0 mm 3 mps 761 mmHg 32%
    22:00 +16°C° 0 mm 3 mps 762 mmHg 33%
    23:00 +15°C° 0 mm 2 mps 762 mmHg 35%
    Show more